Language selection

Weather shortcuts

Douglas Channel: Past 24 Hour Conditions

 

Bella Bella Airport

01:00 AM PDT 22 April 2024
Disclaimer

This table is a summary of hourly weather conditions for the past 24 hours.
Please note that these observations might not always be representative of weather conditions over their associated marine area.

Date / Time
(PDT)
Wind(knots) Conditions Visibility(km) Pressure(kPa) Air tempC) Relative humidity(%) Dew pointC)
22 April 2024
1:00 SE 3 Mainly Clear 16 102.8 4 96 4
0:00 SE 5 Cloudy 16 102.8 5 98 4
21 April 2024
23:00 SE 5 Mainly Clear 16 102.8 5 96 4
22:00 calm Cloudy 16 102.8 4 97 3
21:00 SSW 2 Mainly Clear 16 102.8 6 91 4
20:00 SW 2 Partly Cloudy 16 102.7 8 76 4
19:00 SSW 5 Partly Cloudy 16 102.8 9 77 5
18:00 SSW 6 Sunny 16 102.7 9 79 6
17:00 WSW 6 Mostly Cloudy 16 102.7 9 68 4
16:00 S 5 Light Rain 16 102.7 9 68 4
15:00 S 7 Mostly Cloudy 16 102.7 11 68 5
14:00 W 6 Mostly Cloudy 16 102.6 9 73 4
13:00 WSW 8 gusts 15 Mainly Sunny 16 102.6 10 65 4
12:00 SW 6 gusts 15 Mostly Cloudy 16 102.5 9 78 5
11:00 SSW 5 Light Rain 16 102.4 8 89 6
10:00 SSW 8 gusts 21 Light Rain 16 102.3 7 91 6
9:00 S 4 Precipitation 10 102.2 6 95 5
8:00 SW 8 gusts 21 Rain 6 102.1 6 89 5
7:00 WSW 4 gusts 15 Light Rain 10 101.9 7 92 6
6:00 SW 6 gusts 22 Light Rain 10 101.8 7 93 6
5:00 SSW 7 gusts 19 Light Rain 10 101.7 7 95 6
4:00 SSW 5 Light Rain 11 101.5 7 95 7
3:00 S 6 Light Rain 5 101.5 7 97 7
2:00 S 12 gusts 20 Cloudy 16 101.3 7 89 6
1:00 S 6 Light Rain 13 101.3 7 92 6

Zoom-in to make a selection

Map of Pacific - North Coast marine weather areas Middle Nomad - 46004 South Nomad - 46036 Dixon Entrance Central - 46145 South Moresby - 46147 Nanakwa Shoal - 46181 North Hecate Strait - 46183 North Nomad - 46184 South Hecate Strait - 46185 West Sea Otter - 46204 West Dixon Entrance - 46205 East Dellwood - 46207 West Moresby - 46208 Sartine Island Cape St.James Kindakun Rocks Langara Island Masset Municipal Airport Rose Spit Sandspit Airport Bella Bella Airport Bella Coola Airport Bonilla Island Cathedral Point Cumshewa Island Grey Islet Holland Rock Lucy Islands Lightstation Prince Rupert Airport
Legend:
buoy Buoy
land station Land Station

Pacific - North Coast Area

Another Region

Date modified: